Regional Weather Roundup
Issued by NWS Wilmington, NC

Home | Current Version | Previous Version | Text Only | Print | Product List | Glossary On
Versions: 1 2 3 4 5 6 7 8 9 10 11 12 13 14 15 16 17 18 19 20 21 22 23 24 25 26 27 28 29 30 31 32 33 34 35 36 37 38 39 40 41 42 43 44 45 46 47 48 49 50
000
ASUS42 KILM 121013
RWRILM
RWRILM
REGIONAL HOURLY WEATHER ROUNDUP
NATIONAL WEATHER SERVICE WILMINGTON NC
500 AM EST FRI FEB 12 2016

NOTE: "FAIR" INDICATES FEW OR NO CLOUDS BELOW 12,000 FEET WITH NO
SIGNIFICANT WEATHER AND/OR OBSTRUCTIONS TO VISIBILITY.

...............WFO WILMINGTON COUNTY WARNING AREA...............

......COASTAL NC AND SC COUNTIES......

CITY           SKY/WX    TMP DP  RH WIND       PRES   REMARKS
WILMINGTON     CLOUDY    35  16  45 NE9       30.24F WCI  28
N MYRTLE BEACH CLOUDY    41  30  65 NE9       30.20F
MYRTLE BEACH   CLOUDY    46  32  57 E13       30.21F

......INLAND NC AND SC COUNTIES.......

CITY           SKY/WX    TMP DP  RH WIND       PRES   REMARKS
LUMBERTON      CLOUDY    31  15  52 NE10      30.24S WCI  22
ELIZABETHTOWN  PTCLDY    30  17  58 CALM      30.24F
WHITEVILLE     CLOUDY    33  19  56 NE7       30.22S WCI  27
FLORENCE       CLOUDY    32  29  88 NE7       30.21S WCI  26
DARLINGTON     PTCLDY    30  19  64 NE8       30.23R WCI  23
KINGSTREE      CLOUDY    41  32  70 CALM      30.18F
HARTSVILLE     FAIR      32  23  69 NE10G16   30.20S WCI  24
BENNETTSVILLE  FAIR      32  19  59 NE10G16   30.23S WCI  24
CONWAY         CLOUDY    37  32  81 NE6       30.20F HAZE    WCI  33
GEORGETOWN     CLOUDY    46  36  66 NE6       30.18F
MARION         MOCLDY    34  28  80 NE7       30.22S WCI  28

....................REST OF NORTH CAROLINA......................

.........EASTERN NC.........

CITY           SKY/WX    TMP DP  RH WIND       PRES   REMARKS
CAPE HATTERAS  CLEAR     34  12  40 VRB6      30.28F WCI  29
JACKSONVILLE     N/A     27  14  59 N9        30.27F WCI  17
MOREHEAD CITY  MOCLDY    32  18  56 NE7       30.27F WCI  26
KENANSVILLE    CLEAR     27  16  62 CALM      30.28S
NEW BERN       CLEAR     28  16  60 NE6       30.30F WCI  22
ELIZABETH CITY CLEAR     26  14  60 N9        30.34R WCI  17

.........CENTRAL NC.........

CITY           SKY/WX    TMP DP  RH WIND       PRES   REMARKS
RALEIGH DURHAM PTCLDY    26   4  38 E6        30.28F WCI  19
ROCKY MOUNT    CLOUDY    26   9  48 NE8       30.30F WCI  18
ROANOKE RAPIDS NOT AVBL
FAYETTEVILLE   CLEAR     28   9  44 NE8       30.26S WCI  20
HOFFMAN        PTCLDY    28   8  43 NE9       30.23F WCI  19

.........WESTERN NC.........

CITY           SKY/WX    TMP DP  RH WIND       PRES   REMARKS
CHARLOTTE      CLOUDY    32   5  32 NE7       30.21F WCI  26
GREENSBORO     CLOUDY    24   5  44 E7        30.22F WCI  16
HICKORY        NOT AVBL
BOONE          NOT AVBL
ASHEVILLE      NOT AVBL

.....................REST OF SOUTH CAROLINA.....................

.........EASTERN SC.........

CITY           SKY/WX    TMP DP  RH WIND       PRES   REMARKS
CHARLESTON     PTCLDY    44  37  76 N3        30.15F
BEAUFORT MCAS  CLEAR     42  39  89 CALM      30.15F
HILTON HEAD    CLEAR     45  45 100 CALM      30.16S

.........CENTRAL SC.........

CITY           SKY/WX    TMP DP  RH WIND       PRES   REMARKS
COLUMBIA       CLOUDY    37  29  72 N3        30.17S
ORANGEBURG     PTCLDY    42  34  73 NE3       30.16F
SUMTER SHAW    CLOUDY    35  29  78 NE6       30.16F WCI  30

.........WESTERN SC.........

CITY           SKY/WX    TMP DP  RH WIND       PRES   REMARKS
GREENVILLE     NOT AVBL
ROCK HILL      PTCLDY    31  12  45 VRB6      30.21S WCI  25
ANDERSON       PTCLDY    34  19  54 NE7       30.16S WCI  28
CLEMSON        NOT AVBL
GREENWOOD      MOCLDY    31  23  72 N5        30.19R WCI  26


...................COASTAL AND OFFSHORE REPORTS..................

................LOCAL PIERS AND NC RESERVE................


STATION/POSITION TIME  SKY/WX   TEMP    WIND        PRES    VSBY
                                AIR SEA DIR/SP/G
                 (UTC)          (F)     (DEG/KT/KT) (MB)    (MI)
JOHNY MRCER PIER 0900            39 52   20/ 16/ 18 1022.7F
NC RESRV MASNBRO NOT AVBL
OCEAN CREST PIER NOT AVBL
SPRINGMAID  PIER 0900            48 48   60/ 15/ 17 1022.2F


................COASTAL AND OFFSHORE BUOYS................


STATION/POSITION TIME  SKY/WX   TEMP    WIND        PRES    VSBY
                                AIR SEA DIR/SP/G
                 (UTC)          (F)     (DEG/KT/KT) (MB)    (MI)
DIMNDSHOAL 41025 0950            40 69   10/ 12/ 16 1025.3F
WVE H/P(F/S)=  3/ 9 SWL H/P/D(F/S/D)=  2/ 80/ 9

CAPE LOOKOUT     NOT AVBL
ONSLOW BAY 41036 NOT AVBL
ONSLOW BAY 41064 0908            45 59              1023.7F
ONSLOW BAY 41159 0925               59                N/A
WVE H/P(F/S)=  3/ 7

5SE WRITBC 41038 0908            46 50   60/ 16/ 21 1024.0F
MASNBO INL 41110 0906               50                N/A
WVE H/P(F/S)=  2/ 6

WILM HARBR 41108 0926               50                N/A
WVE H/P(F/S)=  2/ 6

27SE WRITB 41037 0908            48 62   80/ 10/ 16 1021.7F
FRYING PAN 41013 0900            51 57   60/ 10/ 12 1023.4R
SUNST NRSH 41024 NOT AVBL
CAPRS NRSH 41029 0908            51      70/ 12/ 16 1021.0F
EDISTO     41004 0950            60 69  240/ 14/ 16 1020.5F
WVE H/P(F/S)=  2/ 2



..........OFFSHORE BUOYS BEYOND 100 NM OFFSHORE...........
.....IN A TRIANGLE---HAT TO BERMUDA TO BAHAMAS TO HAT.....


STATION/POSITION TIME  SKY/WX   TEMP    WIND        PRES    VSBY
                                AIR SEA DIR/SP/G
                 (UTC)          (F)     (DEG/KT/KT) (MB)    (MI)
150E HAT   41001 0900            48 69  310/ 17/ 25 1025.3R
W BERMUDA  41048 0950            60 69  310/ 19/ 25 1023.5R
WVE H/P(F/S)= 11/10 SWL H/P/D(F/S/D)=  8/300/10

ATLANTIC S 41049 0950            71 74  330/ 12/ 14 1022.9R
WVE H/P(F/S)=  9/12 SWL H/P/D(F/S/D)=  8/290/12

E BAHAMAS  41046 0950            74 79   30/ 16/ 21 1021.9R
WVE H/P(F/S)=  9/11 SWL H/P/D(F/S/D)=  8/320/11

NE BAHAMAS 41047 0950            67 75  340/  6/ 10 1025.1R
WVE H/P(F/S)=  8/10 SWL H/P/D(F/S/D)=  7/310/10

120E CANVRL41010 0920            67 72              1024.3F

END



USA.gov is the U.S. government's official web portal to all federal, state and local government web resources and services.